Overview Statistics Trail Chart Weather Telemetry Raw packets
 

This is the latest recevied weather packets stored in our database for station/object EA3DJ-10. If no packets are shown the sender has not sent any weather packets the latest 10 day(s).

<< 10 11 12 13 14 15 16 >>
Time Temp. Humidity Pressure Rain* Wind** Luminosity Snow
1788300022 29.44° C 46% 1020.9 hPa - - - -
1788298822 31.11° C 42% 1020.8 hPa - - - -
1788297622 30° C 35% 1020.6 hPa - - - -
1788296422 31.67° C 40% 1020.4 hPa - - - -
1788295222 30.56° C 43% 1020.3 hPa - - - -
1788294022 30° C 35% 1020.3 hPa - - - -
1788292821 31.11° C 42% 1019.9 hPa - - - -
1788291620 30° C 40% 1019.7 hPa - - - -
1788290416 30.56° C 39% 1019.6 hPa - - - -
1788289216 30.56° C 42% 1019.4 hPa - - - -
1788288016 29.44° C 35% 1019.4 hPa - - - -
1788286816 30.56° C 43% 1019.1 hPa - - - -
1788285616 28.89° C 44% 1019.3 hPa - - - -
1788284416 28.89° C 40% 1019.7 hPa - - - -
1788283215 28.33° C 48% 1019.8 hPa - - - -
1788282015 27.22° C 40% 1020.2 hPa - - - -
1788280815 26.67° C 52% 1020 hPa - - - -
1788279615 25° C 47% 1020.5 hPa - - - -
1788278415 25.56° C 49% 1020.4 hPa - - - -
1788277215 26.11° C 46% 1020.6 hPa - - - -
1788276025 26.11° C 45% 1020.5 hPa - - - -
1788274815 23.89° C 46% 1020.8 hPa - - - -
1788273615 26.11° C 54% 1020.8 hPa - - - -
1788272415 24.44° C 48% 1021 hPa - - - -
1788271214 24.44° C 44% 1020.6 hPa - - - -

* Rain since midnight (hover to see other rain measurements)
** Current wind speed in m/s (hover to see current wind gust speed)